User: anonymous   Login
Location: Nashville
(36.1660°N, 86.7840°W)
Time: 14:19:55
(UTC-05:00)
Language:

BEESAT 2 - Orbit

View from above orbital plane
View from above orbital plane
View from above satellite
View from above satellite

Ground track
Ground track

The orbit data is extracted from the following two-line orbital elements,

1 39136U 13015G   22136.45259903  .00011606  00000-0  50887-3 0  9998
2 39136  64.8750 210.1145 0014378 295.3012  64.6626 15.22242675501049
Epoch (UTC): 16 May 2022 10:51:44
Eccentricity: 0.0014378
inclination: 64.8750°
perigee height: 489 km
apogee height: 509 km
right ascension of ascending node: 210.1145°
argument of perigee: 295.3012°
revolutions per day: 15.22242675
mean anomaly at epoch: 64.6626°
orbit number at epoch: 50104

The dashed part of the orbit path shows where the satellite is in the earth's shadow,  

DLR